Back to catalog

STARLINK-34087

AliveCommunicationsVLEO
NORAD 64023·PAYLOAD·🇺🇸 United States

Launched May 16, 2025 from Vandenberg Space Force Base

Loading…

Next Passes (next 24 hours)

TLE

FreshSource: CelesTrak SupGP

Epoch: Sep 14, 2026, 14:10 UTC

1 64023C 25102B   26257.59076389 -.00017803  00000+0 -61948-3 0  2572
2 64023  70.0014 356.5268 0003399 274.9683 274.7125 15.29577946    11

Track STARLINK-34087 in real time with AllMySat

Download on the App Store